Stations météo

réclame
Mon MeteoGroup
Svenska Hogarna A, Suède (2498): Température de l'air & dewpoint: 19.04.2018 10:00:00 - 25.04.2018 10:00:00 (CEST)Svenska Hogarna A, Suède (2498): Vitesse du vent & gusts: 19.04.2018 10:00:00 - 25.04.2018 10:00:00 (CEST)Svenska Hogarna A, Suède (2498): Direction du vent: 19.04.2018 10:00:00 - 25.04.2018 10:00:00 (CEST)Svenska Hogarna A, Suède (2498): reduced air pressure: 19.04.2018 10:00:00 - 25.04.2018 10:00:00 (CEST)Svenska Hogarna A, Suède (2498): visibility: 19.04.2018 10:00:00 - 25.04.2018 10:00:00 (CEST)Svenska Hogarna A, Suède (2498): Quantités de précipitations: 19.04.2018 10:00:00 - 25.04.2018 10:00:00 (CEST)
Date & Time tt [°C] td [°C] ff [km/h] ff [knt] fx [km/h] fx [knt] dd ppp [hPa] vv [km] rr [mm]
25.04.2018 10:00:00 5,3 3,6 19 10 29 15 SW 996,4 35 0,0
25.04.2018 09:00:00 5,2 4,0 20 11 26 14 SW 996,2 47 0,0
25.04.2018 08:00:00 5,8 4,6 19 10 31 17 WSW 996,2 41 0,0
25.04.2018 07:00:00 4,5 4,1 22 12 28 15 WSW 996,0 22 0,0
25.04.2018 06:00:00 4,4 4,1 22 12 27 14 SW 996,0 28 0,0
25.04.2018 05:00:00 4,4 4,1 21 11 28 15 SW 996,2 13 0,0
25.04.2018 04:00:00 4,5 4,2 21 12 28 15 SW 996,2 4,6 0,0
25.04.2018 03:00:00 4,4 4,0 24 13 27 15 WSW 996,0 4,6 0,0
25.04.2018 02:00:00 4,4 4,0 22 12 27 15 SW 996,0 3,1 0,0
25.04.2018 01:00:00 4,0 3,6 15 8 20 11 SW 995,9 2,6 0,0
25.04.2018 00:00:00 3,8 3,4 16 9 23 12 SW 996,0 2,6 0,0
24.04.2018 23:00:00 3,8 3,2 17 9 24 13 SW 996,1 0,4 0,0
24.04.2018 22:00:00 4,0 3,3 18 10 23 13 SSW 996,4 4,4 0,0
24.04.2018 21:00:00 4,2 3,3 18 10 30 16 S 996,8 16 0,0
24.04.2018 20:00:00 4,7 3,5 23 12 38 20 SSW 997,0 31 0,0
24.04.2018 19:00:00 5,0 3,7 30 16 48 26 SSW 997,3 27 0,8
24.04.2018 18:00:00 5,3 3,5 35 19 45 24 SSW 997,7 35 0,0
24.04.2018 17:00:00 5,5 3,2 32 17 47 26 SSW 998,1 36 0,0
24.04.2018 16:00:00 5,9 3,1 32 17 46 25 SSW 998,6 32 0,0
24.04.2018 15:00:00 6,4 3,2 32 17 51 27 SSW 999,2 33 0,0
24.04.2018 14:00:00 6,5 3,5 34 18 50 27 SSW 999,8 30 0,0
24.04.2018 13:00:00 6,4 3,6 34 18 47 26 SSW 999,9 34 0,0
24.04.2018 12:00:00 6,3 3,8 32 17 44 24 SSW 1000,0 29 0,0
24.04.2018 11:00:00 5,7 3,7 33 18 45 25 SSW 1000,1 27 0,0
24.04.2018 10:00:00 5,1 3,9 30 16 41 22 SSW 1000,4 26 0,0
24.04.2018 09:00:00 4,6 4,0 27 15 36 20 SSW 1000,5 22 0,0
24.04.2018 08:00:00 4,5 4,1 27 15 35 19 SW 1000,6 19 0,0
24.04.2018 07:00:00 4,2 3,8 25 13 34 18 SW 1000,4 21 0,0
24.04.2018 06:00:00 4,3 4,0 24 13 32 17 SSW 1000,5 19 0,0
24.04.2018 05:00:00 4,4 4,1 26 14 32 17 SW 1000,8 18 0,0
24.04.2018 04:00:00 3,9 3,6 18 10 23 13 SSW 1001,2 6 0,0
24.04.2018 03:00:00 3,1 2,7 13 7 24 13 S 1001,3 0,4 0,0
24.04.2018 02:00:00 3,1 2,7 23 12 33 18 SSW 1001,5 0,2 0,0
24.04.2018 01:00:00 3,2 2,8 25 13 36 19 SSW 1001,9 0,1 0,0
24.04.2018 00:00:00 3,5 2,9 26 14 36 19 SSW 1002,0 0,2 0,0
23.04.2018 23:00:00 4,0 3,4 23 13 34 18 SW 1002,1 5 0,0
23.04.2018 22:00:00 3,9 3,2 24 13 41 22 SSW 1002,5 9 0,0
23.04.2018 21:00:00 4,0 3,4 29 16 45 24 SSE 1003,0 4,3 0,0
23.04.2018 20:00:00 4,0 3,3 34 18 48 26 SE 1003,4 2,9 0,0
23.04.2018 19:00:00 4,2 3,2 37 20 48 26 SE 1004,0 9 0,0
23.04.2018 18:00:00 4,7 2,9 39 21 51 28 SE 1005,2 27 0,0
23.04.2018 17:00:00 4,8 2,5 34 18 44 24 SE 1006,0 44 0,0
23.04.2018 16:00:00 4,4 2,3 31 17 44 24 SE 1007,1 42 0,0
23.04.2018 15:00:00 4,3 2,3 32 17 40 22 ESE 1008,4 38 0,0
23.04.2018 14:00:00 5,3 2,8 28 15 35 19 SE 1009,9 34 0,0
23.04.2018 13:00:00 4,8 2,2 26 14 34 18 SE 1010,8 47 0,0
23.04.2018 12:00:00 5,5 2,5 24 13 32 18 SE 1011,5 36 0,0
23.04.2018 11:00:00 5,0 2,5 26 14 33 18 SE 1012,3 36 0,0
23.04.2018 10:00:00 5,4 2,9 23 13 31 17 SE 1012,9 37 0,0
23.04.2018 09:00:00 4,6 2,8 23 13 29 16 SE 1013,0 44 0,0
23.04.2018 08:00:00 4,3 2,5 22 12 27 15 SE 1013,6 48 0,0
23.04.2018 07:00:00 3,7 2,7 18 10 24 13 SE 1014,3 36 0,0
23.04.2018 06:00:00 3,1 2,2 17 9 21 11 SE 1014,5 43 0,0
23.04.2018 05:00:00 2,7 2,0 16 9 20 11 SSE 1015,1 34 0,0
23.04.2018 04:00:00 2,4 1,7 13 7 14 8 SSE 1015,5 50 0,0
23.04.2018 03:00:00 2,4 1,5 11 6 17 9 S 1016,0 43 0,0
23.04.2018 02:00:00 2,5 1,5 14 8 16 9 SSE 1016,2 50 0,0
23.04.2018 01:00:00 2,7 1,2 7 4 9 5 SE 1016,2 48 0,0
23.04.2018 00:00:00 2,5 0,9 6 4 10 5 SSE 1016,4 49 0,0
22.04.2018 23:00:00 4,2 1,2 2 1 6 3 NNW 1016,4 36 0,0
22.04.2018 22:00:00 3,2 0,9 6 3 10 5 WNW 1016,4 43 0,0
22.04.2018 21:00:00 3,6 1,3 4 2 8 5 W 1016,6 50 0,0
22.04.2018 20:00:00 4,5 1,2 6 4 27 15 W 1016,3 50 0,0
22.04.2018 19:00:00 4,9 1,4 22 12 35 19 NNE 1015,7 50 0,0
22.04.2018 18:00:00 4,7 1,4 22 12 33 18 NNE 1015,8 43 0,0
22.04.2018 17:00:00 5,7 1,4 21 11 31 17 NNE 1015,9 42 0,0
22.04.2018 16:00:00 5,2 1,7 22 12 30 16 N 1016,0 43 0,0
22.04.2018 15:00:00 5,4 1,3 17 9 28 15 N 1016,1 43 0,0
22.04.2018 14:00:00 5,3 1,0 22 12 30 16 N 1015,9 40 0,0
22.04.2018 13:00:00 6,2 1,1 22 12 38 20 NNW 1015,7 48 0,0
22.04.2018 12:00:00 7,1 1,2 24 13 39 21 NNW 1015,4 46 0,0
22.04.2018 11:00:00 6,4 0,7 20 11 38 21 NNW 1015,1 45 0,0
22.04.2018 10:00:00 6,5 0,6 23 12 39 21 NNW 1014,0 49 0,0
22.04.2018 09:00:00 6,2 0,5 21 11 33 18 NW 1013,4 47 0,0
22.04.2018 08:00:00 5,6 0,4 22 12 29 16 WNW 1013,1 48 0,0
22.04.2018 07:00:00 4,7 0,1 26 14 31 17 WNW 1012,6 50 0,0
22.04.2018 06:00:00 3,8 0,3 23 13 27 15 WNW 1012,2 50 0,0
22.04.2018 05:00:00 3,8 0,1 23 13 29 16 WNW 1011,9 43 0,0
22.04.2018 04:00:00 4,5 0,1 24 13 29 16 WNW 1011,9 48 0,0
22.04.2018 03:00:00 5,1 -0,3 26 14 32 17 WNW 1011,6 50 0,0
22.04.2018 02:00:00 5,3 0,1 18 10 28 15 W 1011,5 50 0,0
22.04.2018 01:00:00 6,8 -0,4 21 11 24 13 W 1011,5 50 0,0
22.04.2018 00:00:00 6,9 0,3 22 12 26 14 W 1011,4 48 0,0
21.04.2018 23:00:00 5,5 0,9 22 12 31 17 WSW 1010,9 49 0,0
21.04.2018 22:00:00 3,7 1,4 17 9 20 11 SW 1010,5 39 0,0
21.04.2018 21:00:00 6,5 -0,7 12 6 19 10 W 1010,5 50 0,0
21.04.2018 20:00:00 5,8 0,1 15 8 24 13 W 1010,1 50 0,0
21.04.2018 19:00:00 6,9 0,1 7 4 17 9 NW 1009,8 50 0,0
21.04.2018 18:00:00 8,0 0,2 9 5 19 10 NNW 1009,6 50 0,0
21.04.2018 17:00:00 8,2 -0,6 8 5 19 10 N 1009,5 50 0,0
21.04.2018 16:00:00 9,4 0,0 10 5 19 11 N 1009,1 45 0,0
21.04.2018 15:00:00 12,1 -0,4 11 6 19 11 N 1008,9 50 0,0
21.04.2018 14:00:00 9,9 2,0 16 8 29 16 W 1008,5 50 0,0
21.04.2018 13:00:00 10,5 2,3 23 12 32 18 W 1007,8 50 0,0
21.04.2018 12:00:00 10,2 2,5 25 13 32 17 W 1007,7 41 0,0
21.04.2018 11:00:00 8,4 2,6 21 11 30 16 W 1007,6 40 0,0
21.04.2018 10:00:00 6,5 2,9 22 12 29 16 W 1007,0 44 0,0
21.04.2018 09:00:00 5,9 2,9 26 14 29 16 W 1006,6 41 0,0
21.04.2018 08:00:00 5,0 2,7 22 12 29 16 WNW 1006,1 46 0,0
21.04.2018 07:00:00 4,5 2,7 26 14 29 16 WNW 1005,6 50 0,0
21.04.2018 06:00:00 3,7 2,5 22 12 39 21 WNW 1005,1 44 0,0
21.04.2018 05:00:00 4,3 3,1 29 16 48 26 NW 1004,7 50 0,0
21.04.2018 04:00:00 4,9 3,6 31 17 70 38 NNW 1004,4 50 0,0
21.04.2018 03:00:00 5,3 3,5 33 18 60 33 NNW 1003,5 36 0,0
21.04.2018 02:00:00 7,6 5,1 13 7 22 12 WNW 1002,3 21 0,0
21.04.2018 01:00:00 9,3 5,3 23 12 38 20 NW 1002,8 24 0,0
21.04.2018 00:00:00 5,4 3,4 26 14 32 17 SW 1002,9 16 0,0
20.04.2018 23:00:00 5,1 3,3 23 12 34 18 SW 1003,8 12 0,0
20.04.2018 22:00:00 5,4 3,4 24 13 33 18 SW 1005,1 12 0,0
20.04.2018 21:00:00 5,6 3,4 26 14 33 18 SW 1006,5 12 0,0
20.04.2018 20:00:00 6,2 3,7 27 15 39 21 SW 1007,6 14 0,0
20.04.2018 19:00:00 7,2 4,3 31 17 41 22 SSW 1008,7 16 0,0
20.04.2018 18:00:00 7,7 4,6 32 17 44 24 SW 1010,1 20 0,0
20.04.2018 17:00:00 8,0 4,6 32 17 43 23 SW 1011,3 20 0,0
20.04.2018 16:00:00 8,1 4,5 32 17 41 22 SW 1012,6 25 0,0
20.04.2018 15:00:00 9,0 4,8 29 16 39 21 SSW 1013,8 28 0,0
20.04.2018 14:00:00 8,3 4,3 26 14 40 22 SSW 1014,8 27 0,0
20.04.2018 13:00:00 8,3 4,7 29 16 39 21 SW 1015,6 23 0,0
20.04.2018 12:00:00 8,2 4,6 19 10 28 15 SSW 1016,5 19 0,0
20.04.2018 11:00:00 8,5 5,2 24 13 34 18 SW 1017,4 27 0,0
20.04.2018 10:00:00 7,4 4,9 22 12 36 19 SW 1018,1 22 0,0
20.04.2018 09:00:00 6,8 4,6 29 16 36 19 SW 1018,4 27 0,0
20.04.2018 08:00:00 5,7 4,2 26 14 35 19 WSW 1019,1 19 0,0
20.04.2018 07:00:00 5,3 3,8 26 14 34 18 WSW 1019,4 18 0,0
20.04.2018 06:00:00 4,3 2,8 26 14 33 18 SW 1020,0 18 0,0
20.04.2018 05:00:00 4,7 3,2 23 12 29 16 SSW 1020,8 19 0,0
20.04.2018 04:00:00 4,4 3,1 21 12 29 16 SSW 1021,8 18 0,0
20.04.2018 03:00:00 4,5 3,0 20 11 28 15 SSW 1022,7 20 0,0
20.04.2018 02:00:00 4,8 3,1 18 10 27 15 SSW 1023,7 25 0,0
20.04.2018 01:00:00 5,0 3,2 19 11 31 17 SSW 1024,4 26 0,0
20.04.2018 00:00:00 4,7 2,9 22 12 29 16 S 1025,3 33 0,0
19.04.2018 23:00:00 4,7 2,7 19 10 25 14 S 1026,0 39 0,0
19.04.2018 22:00:00 5,3 2,8 18 10 24 13 SSW 1026,6 35 0,0
19.04.2018 21:00:00 5,0 2,9 18 10 23 12 SSW 1027,0 40 0,0
19.04.2018 20:00:00 5,5 2,8 11 6 13 7 S 1027,0 39 0,0
19.04.2018 19:00:00 6,2 2,8 8 4 11 6 SSW 1027,6 48 0,0
19.04.2018 18:00:00 6,9 3,1 5 3 12 7 W 1027,9 38 0,0
19.04.2018 17:00:00 6,6 2,9 10 5 19 10 WNW 1028,2 38 0,0
19.04.2018 16:00:00 7,7 3,0 16 9 28 15 N 1028,1 28 0,0
19.04.2018 15:00:00 8,6 3,4 19 10 32 17 N 1028,3 33 0,0
19.04.2018 14:00:00 8,2 3,3 19 11 34 18 N 1028,5 41 0,0
19.04.2018 13:00:00 9,0 3,6 20 11 31 17 NNW 1028,5 34 0,0
19.04.2018 12:00:00 8,9 3,7 22 12 36 19 NNW 1028,3 31 0,0
19.04.2018 11:00:00 7,6 3,3 16 9 33 18 NNW 1028,1 36 0,0
19.04.2018 10:00:00 6,9 3,1 23 12 31 17 NW 1027,5 33 0,0

tt = Température de l'air
td = dewpoint
ff = Vitesse du vent
fx = gusts
dd = Direction du vent
ppp = reduced air pressure
vv = visibility
rr = Quantités de précipitations

stations d'obs. à proximité